| time (UTC) | temp F | wind direction | speed MPH | gust MPH | rain 1hr in | rain 24hr in | rain mn in | humidity % | barometer mb |
| 20260906051637 | 43 | 310 | 23.0 | 30.0 | 0.00 | 0.00 | 0.00 | 99 | |
| 20260906042039 | 43 | 300 | 25.0 | 32.0 | 0.00 | 0.00 | 0.00 | 99 | |
| 20260906031638 | 45 | 300 | 21.0 | 28.0 | 0.00 | 0.00 | 0.00 | 87 | |
| 20260906021638 | 45 | 300 | 20.0 | 26.0 | 0.00 | 0.00 | 0.00 | 99 | |
| 20260906011937 | 46 | 290 | 18.0 | 26.0 | 0.00 | 0.00 | 0.00 | 93 | |
| 20260906001638 | 46 | 290 | 17.0 | 26.0 | 0.00 | 0.00 | 0.00 | 93 | |
| 20260905231638 | 46 | 290 | 21.0 | 29.0 | 0.00 | 0.00 | 0.00 | 93 | |
| 20260905222040 | 48 | 300 | 25.0 | 35.0 | 0.00 | 0.00 | 0.00 | 81 | |
| 20260905211637 | 48 | 290 | 25.0 | 32.0 | 0.00 | 0.00 | 0.00 | 81 | |
| 20260905201638 | 48 | 290 | 28.0 | 36.0 | 0.00 | 0.00 | 0.00 | 81 | |
| 20260905191939 | 48 | 290 | 26.0 | 33.0 | 0.00 | 0.00 | 0.00 | 81 | |
| 20260905181637 | 50 | 280 | 24.0 | 35.0 | 0.00 | 0.00 | 0.00 | 76 | |
| 20260905171642 | 52 | 290 | 26.0 | 36.0 | 0.00 | 0.00 | 0.00 | 71 | |
| 20260905162041 | 54 | 290 | 26.0 | 37.0 | 0.00 | 0.00 | 0.00 | 66 | |
| 20260905152105 | 54 | 290 | 25.0 | 35.0 | 0.00 | 0.00 | 0.00 | 71 | |
| 20260905142220 | 55 | 290 | 29.0 | 37.0 | 0.00 | 0.00 | 0.00 | 66 | |
| 20260905131837 | 55 | 280 | 25.0 | 36.0 | 0.00 | 0.00 | 0.00 | 71 | |
| 20260905121607 | 55 | 280 | 30.0 | 39.0 | 0.00 | 0.00 | 0.00 | 71 | |
| 20260905111640 | 54 | 280 | 24.0 | 37.0 | 0.00 | 0.00 | 0.00 | 81 | |
| 20260905102048 | 52 | 270 | 35.0 | 45.0 | 0.00 | 0.00 | 0.00 | 81 | |
| 20260905091607 | 48 | 280 | 26.0 | 37.0 | 0.00 | 0.00 | 0.00 | 93 | |
| 20260905081640 | 48 | 280 | 23.0 | 30.0 | 0.00 | 0.00 | 0.00 | 93 | |
| 20260905071939 | 46 | 270 | 26.0 | 36.0 | 0.00 | 0.00 | 0.00 | 99 | |
| 20260905061640 | 46 | 280 | 24.0 | 32.0 | 0.00 | 0.00 | 0.00 | 99 |